Location: Unspecified
(40.7945°N, 0.0000°E)
Time: 05:30:46
(UTC+00:00)

Tiros 1 despin weight - Pass Details

Date: 23 January 2021
Orbit: 593 x 642 km, 48.2° (Epoch: 06 March)

Event Time Altitude Azimuth Distance (km) Brightness Sun altitude
Rises 20:01:12 0° 299° (WNW) 2,845 ? -32.9°
Reaches altitude 10° 20:03:30 10° 299° (WNW) 1,935 ? -33.3°
Enters shadow 20:04:55 20° 298° (WNW) 1,390 ? -33.6°
